Flag for U.S.A. Weather past 2 weeks in Germantown, Maryland, U.S.A.

Now
88 °F

Scattered clouds.


Feels Like: 88 °F
Forecast: 65 / 85 °F
Wind: 6 mph from Southwest

Location: Frederick Municipal Airport

Current Time: Jul 31, 2015 at 3:57:53 PM

Latest Report: Jul 31, 2015 at 2:52 PM


Visibility: 10 mi

Pressure: 29.94 "Hg

Humidity: 43%

Dew point: 63 °F

Location of GermantownLocation

Historic Weather in Germantown — Graph

°F

Germantown temperature yesterday

Maximum temperature yesterday: 90 °F (at 11:45 AM)
Minimum temperature yesterday: 68 °F (at 11:00 PM)
Average temperature yesterday: 76 °F

Past Weeks' High & Low Weather Summary

 TemperatureHumidityPressure
High95 °F (Jul 19, 3:50 PM)100% (Jul 16, 9:20 PM)30.12 "Hg (Jul 16, 9:20 PM)
Low55 °F (Jul 24, 4:40 AM)16% (Jul 20, 7:59 PM)29.67 "Hg (Jul 21, 3:59 PM)
Average74 °F85%29.95 "Hg
* Reported Jul 16 2:49 PM — Jul 31 2:52 PM, Germantown, Weather by CustomWeather, © 2015

Note: Actual official high and low records may vary slightly from our data, if they occured in-between our weather recording intervals... More about our weather records

Advertising

Germantown weather history for previous 24 hours

 ConditionsComfort  
Time TempWeatherWind HumidityBarometerVisibility
2:52 PM
Fri, Jul 31
88 °FScattered clouds.6 mph43%29.94 "Hg10 mi
1:50 PM88 °FScattered clouds.8 mph46%29.96 "Hg10 mi
12:48 PM88 °FScattered clouds.9 mph38%29.97 "Hg10 mi
11:50 AM88 °FSunny.5 mph46%29.98 "Hg10 mi
10:45 AM86 °FSunny.6 mph49%29.98 "Hg10 mi
9:50 AM82 °FSunny.7 mph55%29.99 "Hg10 mi
7:58 AM70 °FSunny.No wind88%29.99 "Hg10 mi
6:45 AM63 °FClear.No wind100%29.97 "Hg10 mi
6:20 AM61 °FClear.5 mph100%29.97 "Hg7 mi
6:00 AM61 °FFog.No wind100%29.97 "Hg5 mi
5:40 AM61 °FClear.No wind100%29.96 "Hg7 mi
5:20 AM63 °FClear.No wind100%29.96 "Hg10 mi
5:00 AM63 °FClear.No wind100%29.96 "Hg10 mi
4:20 AM63 °FClear.No wind100%29.96 "Hg7 mi
4:00 AM63 °FClear.No wind100%29.96 "Hg10 mi
3:20 AM63 °FClear.No wind100%29.95 "Hg10 mi
3:00 AM63 °FClear.No wind100%29.96 "Hg7 mi
2:20 AM64 °FClear.No wind100%29.95 "Hg10 mi
2:00 AM64 °FClear.No wind100%29.95 "Hg7 mi
1:20 AM64 °FPassing clouds.No wind100%29.95 "Hg10 mi
1:00 AM66 °FPassing clouds.No wind100%29.96 "Hg7 mi
12:40 AM68 °FClear.No wind100%29.96 "Hg10 mi
12:20 AM68 °FClear.No wind100%29.96 "Hg10 mi
12:00 AM68 °FClear.No wind100%29.95 "Hg10 mi
11:40 PM
Thu, Jul 30
68 °FClear.No wind100%29.95 "Hg10 mi
11:20 PM68 °FClear.3 mph100%29.95 "Hg10 mi
11:00 PM68 °FClear.No wind100%29.94 "Hg10 mi
10:40 PM70 °FClear.No wind100%29.94 "Hg10 mi
10:20 PM70 °FClear.3 mph100%29.94 "Hg10 mi
10:00 PM70 °FClear.No wind100%29.94 "Hg10 mi
9:20 PM72 °FScattered clouds.No wind100%29.92 "Hg10 mi
9:00 PM73 °FScattered clouds.No wind94%29.92 "Hg10 mi
8:40 PM77 °FSunny.3 mph74%29.91 "Hg10 mi
7:48 PM84 °FSunny.No wind55%29.89 "Hg10 mi
6:47 PM90 °FScattered clouds.6 mph49%29.88 "Hg10 mi
4:47 PM90 °FSunny.7 mph63%29.87 "Hg10 mi
3:48 PM86 °FScattered clouds.5 mph75%29.88 "Hg10 mi
Weather by CustomWeather, © 2015

See weather overviewHow to use our weather pages